Flag for Spain Weather past 2 weeks in Alicante, Spain

Now
52 °F

Passing clouds.


Feels Like: 51 °F
Forecast: 55 / 65 °F
Wind: 3 mph from West

Location: Alicante / El Altet

Current Time: Dec 20, 2014 at 8:38:50 AM

Latest Report: Dec 20, 2014 at 8:00 AM


Visibility: 4 mi

Pressure: 30.42 "Hg

Humidity: 94%

Dew point: 50 °F

Location of AlicanteLocation

Historic Weather in Alicante — Graph

°F

Alicante temperature yesterday

Maximum temperature yesterday: 66 °F (at 2:00 PM)
Minimum temperature yesterday: 46 °F (at 7:00 AM)
Average temperature yesterday: 55 °F

Past Weeks' High & Low Weather Summary

 TemperatureHumidityPressure
High70 °F (Dec 18, 2:00 PM)100% (Dec 12, 11:00 PM)30.45 "Hg (Dec 12, 11:00 PM)
Low37 °F (Dec 10, 8:00 AM)25% (Dec 9, 4:00 PM)29.86 "Hg (Dec 14, 2:00 PM)
Average54 °F65%30.17 "Hg
* Reported Dec 5 7:00 AM — Dec 20 7:30 AM, Alicante, Weather by CustomWeather, © 2014

Note: Actual official high and low records may vary slightly from our data, if they occured in-between our weather recording intervals... More about our weather records

Advertising

Alicante weather history for previous 24 hours

 ConditionsComfort  
Time TempWeatherWind HumidityBarometerVisibility
7:30 AM
Dec 20
50 °FPassing clouds.5 mph100%30.42 "Hg6 mi
7:00 AM52 °FPassing clouds.1 mph100%30.42 "HgN/A
6:30 AM54 °FPassing clouds.2 mph94%30.39 "HgN/A
6:00 AM54 °FPassing clouds.2 mph100%30.39 "HgN/A
5:30 AM55 °FPassing clouds.2 mph94%30.39 "HgN/A
5:00 AM55 °FPassing clouds.3 mph94%30.39 "HgN/A
4:30 AM55 °FClear.7 mph94%30.39 "Hg10 mi
4:00 AM50 °FClear.2 mph88%30.39 "Hg10 mi
3:30 AM50 °FClear.2 mph94%30.39 "Hg10 mi
3:00 AM50 °FClear.No wind100%30.39 "Hg10 mi
2:30 AM48 °FClear.No wind100%30.39 "Hg10 mi
2:00 AM55 °FClear.1 mph88%30.39 "Hg10 mi
1:30 AM54 °FClear.No wind94%30.39 "Hg10 mi
1:00 AM54 °FPassing clouds.5 mph88%30.36 "HgN/A
12:30 AM52 °FClear.2 mph88%30.36 "Hg10 mi
12:00 AM54 °FClear.1 mph88%30.39 "Hg10 mi
11:30 PM
Dec 19
54 °FClear.1 mph82%30.36 "Hg10 mi
11:00 PM54 °FClear.5 mph82%30.36 "Hg10 mi
10:30 PM52 °FClear.6 mph88%30.36 "Hg10 mi
10:00 PM52 °FClear.1 mph94%30.36 "Hg10 mi
9:30 PM50 °FClear.2 mph94%30.36 "Hg10 mi
9:00 PM52 °FClear.2 mph88%30.36 "Hg10 mi
8:30 PM54 °FClear.1 mph88%30.36 "Hg10 mi
8:00 PM54 °FClear.5 mph88%30.33 "Hg10 mi
7:00 PM57 °FClear.2 mph88%30.33 "Hg10 mi
6:30 PM57 °FClear.2 mph88%30.33 "Hg10 mi
6:00 PM59 °FClear.3 mph82%30.33 "Hg10 mi
5:30 PM63 °FPassing clouds.3 mph77%30.33 "HgN/A
5:00 PM64 °FPassing clouds.5 mph73%30.30 "HgN/A
4:30 PM64 °FSunny.7 mph73%30.30 "Hg10 mi
4:00 PM66 °FPassing clouds.8 mph64%30.30 "HgN/A
3:30 PM66 °FPassing clouds.7 mph60%30.30 "HgN/A
3:00 PM66 °FPassing clouds.7 mph64%30.30 "HgN/A
2:30 PM66 °FPassing clouds.9 mph60%30.33 "HgN/A
2:00 PM66 °FPassing clouds.9 mph56%30.33 "HgN/A
1:30 PM64 °FPassing clouds.8 mph60%30.36 "HgN/A
1:00 PM64 °FPassing clouds.7 mph60%30.36 "HgN/A
12:30 PM64 °FPassing clouds.7 mph56%30.39 "HgN/A
12:00 PM63 °FPassing clouds.6 mph59%30.39 "HgN/A
11:30 AM61 °FPassing clouds.7 mph63%30.39 "HgN/A
11:00 AM59 °FPassing clouds.3 mph68%30.39 "HgN/A
10:30 AM57 °FPassing clouds.5 mph67%30.39 "HgN/A
10:00 AM54 °FPassing clouds.3 mph77%30.39 "HgN/A
9:30 AM52 °FSunny.5 mph82%30.36 "Hg10 mi
9:00 AM48 °FSunny.7 mph87%30.36 "Hg10 mi
8:30 AM48 °FSunny.7 mph87%30.36 "Hg10 mi
8:00 AM46 °FClear.7 mph93%30.36 "Hg10 mi
Weather by CustomWeather, © 2014

See weather overviewHow to use our weather pages